Weather observations for the past three days for
Glasgow, Glasgow Municipal Airport
Imperial (Metric)
Date Time (cdt) Wind (mph) Vis. (mi.) Weather Sky Cond. Temperature (ºF) Relative Humidity Wind Chill (°F) Heat Index (°F) Pressure Precipitation (in)
Air Dwpt 6 hour altimeter (in) sea level (mb) 1 hr 3 hr 6 hr
Max. Min.
18 09:15 S 6 10.00 Fair CLR 81.9 72 72% 87 30.17 0.0
18 08:55 SW 7 10.00 Fair CLR 82.2 72.1 72% 87 30.17 0.0
18 08:35 SW 6 10.00 Fair CLR 81.3 71.4 72% 86 30.16 0.0
18 08:15 S 5 10.00 Fair CLR 79.9 71.2 75% 83 30.16 0.0
18 07:55 S 6 10.00 Fair CLR 79.5 70.9 75% 83 30.15 0.0
18 07:35 S 7 10.00 Fair CLR 79.7 70.9 75% 83 30.15 0.0
18 07:15 Calm 10.00 Fair CLR 78.6 70.3 76% 81 30.15 0.0
18 06:55 Calm 10.00 Fair CLR 77.2 70.2 77.2 75.2 79% 79 30.14 0.0
18 06:35 Calm 10.00 Fair CLR 75.9 69.8 81% 77 30.13 0.0
18 06:15 Calm 10.00 Fair CLR 75.9 68.9 79% 77 30.13 0.0
18 05:55 Calm 10.00 Fair CLR 75.6 68.4 78% 77 30.12 0.0
18 05:35 Calm 10.00 Partly Cloudy SCT070 75.6 68.2 78% 77 30.11 0.0
18 05:15 Calm 10.00 Mostly Cloudy BKN070 76.1 68.4 77% 77 30.11 0.0
18 04:55 Calm 10.00 Partly Cloudy SCT070 76.6 68.4 76% 78 30.11 0.0
18 04:35 Calm 10.00 Fair CLR 77 68.4 75% 79 30.1 0.0
18 04:15 Calm 10.00 Fair CLR 76.8 68.5 76% 78 30.09 0.0
18 03:55 SE 3 10.00 Fair CLR 76.6 68.5 76% 78 30.09 0.0
18 03:35 Calm 10.00 Fair CLR 77 68.5 75% 79 30.09 0.0
18 03:15 Calm 10.00 Fair CLR 77 68.4 75% 79 30.09 0.0
18 02:55 S 3 10.00 Fair CLR 76.8 68.4 75% 78 30.08 0.0
18 02:35 Calm 10.00 Fair CLR 77 68.4 75% 79 30.08 0.0
18 02:15 Calm 10.00 Fair CLR 76.8 68.2 75% 78 30.09 0.0
18 01:55 Calm 10.00 Fair CLR 76.8 68.4 75% 78 30.09 0.0
18 01:43 SE 3 10.00 Fair CLR 75.2 68 78% 76 30.09 0.0
18 00:55 Calm 10.00 Fair CLR 76.1 68.5 87.8 76.1 78% 77 30.09 0.0
18 00:35 Calm 10.00 Fair CLR 76.5 68.4 76% 78 30.1 0.0
18 00:15 Calm 10.00 Fair CLR 78.1 68.5 73% 80 30.1 0.0
17 23:55 Calm 10.00 Fair CLR 78.8 68.5 71% 81 30.11 0.0
17 23:35 S 3 10.00 Fair CLR 79.3 68.9 71% 82 30.11 0.0
17 23:15 S 3 10.00 Fair CLR 80.2 68.5 68% 83 30.1 0.0
17 22:55 Calm 10.00 Fair CLR 80.6 68.9 68% 84 30.1 0.0
17 22:35 Calm 10.00 Fair CLR 81.5 68.5 65% 85 30.09 0.0
17 22:15 S 3 10.00 Fair CLR 81.9 68.9 65% 85 30.09 0.0
17 21:55 S 3 10.00 Fair CLR 82.4 69.3 65% 86 30.08 0.0
17 21:35 Calm 10.00 Fair CLR 82.6 68.9 63% 86 30.08 0.0
17 21:15 S 3 10.00 Fair CLR 82.9 69.4 64% 87 30.08 0.0
17 20:35 SE 3 10.00 Fair CLR 84 70.5 64% 89 30.07 0.0
17 20:15 Calm 10.00 Fair CLR 84.6 70.9 64% 90 30.06 0.0
17 19:55 Calm 10.00 Fair CLR 84.9 71.2 64% 90 30.05 0.0
17 19:35 S 5 10.00 Fair CLR 85.8 71.4 62% 92 30.05 0.0
17 19:15 SE 3 10.00 Fair CLR 86.4 71.2 61% 92 30.04 0.0
17 18:55 S 3 10.00 Fair CLR 87.8 71.8 92.5 87.1 59% 94 30.04 0.0
17 18:35 S 5 10.00 Fair CLR 87.3 71.2 59% 93 30.03 0.0
17 18:15 S 5 10.00 Fair CLR 87.6 71.8 59% 94 30.03 0.0
17 17:55 SE 6 10.00 Fair CLR 88.5 71.2 57% 95 30.03 0.0
17 17:35 SE 3 10.00 Partly Cloudy SCT055 SCT065 SCT090 89.2 72 57% 96 30.02 0.0
17 17:15 S 8 10.00 Mostly Cloudy BKN055 BKN090 91.6 71.1 51% 98 30.02 0.0
17 16:55 S 6 10.00 Fair CLR 91.4 70.2 50% 97 30.02 0.0
17 16:35 SE 9 10.00 Partly Cloudy SCT050 91.2 70.3 50% 97 30.03 0.0
17 16:15 S 8 G 16 10.00 Partly Cloudy SCT050 91.6 70.3 50% 98 30.03 0.0
17 15:55 S 8 10.00 Fair CLR 91 72 54% 99 30.04 0.0
17 15:35 SE 6 10.00 Partly Cloudy SCT050 SCT080 SCT100 89.2 71.2 55% 96 30.05 0.0
17 15:15 S 8 10.00 Partly Cloudy SCT050 91.4 72.5 54% 99 30.06 0.0
17 14:55 S 9 10.00 Mostly Cloudy BKN050 88.7 69.8 54% 94 30.07 0.0
17 14:35 S 7 10.00 Partly Cloudy SCT050 92.1 72.5 53% 100 30.07 0.0
17 14:15 S 6 10.00 Fair CLR 91.4 72.1 53% 99 30.07 0.0
17 13:55 S 9 10.00 Partly Cloudy SCT046 SCT060 SCT070 91.6 72.1 53% 99 30.08 0.0
17 13:35 S 7 10.00 Partly Cloudy SCT046 SCT060 SCT070 89.8 71.6 55% 97 30.09 0.0
17 13:15 S 8 10.00 Partly Cloudy SCT046 SCT055 90 72.1 56% 97 30.1 0.0
17 12:55 SE 5 10.00 Mostly Cloudy BKN046 BKN055 88.2 71.6 89.6 77 58% 95 30.1 0.0
17 12:35 S 7 10.00 Partly Cloudy SCT043 SCT055 88.9 72.9 59% 97 30.11 0.0
17 12:15 S 6 10.00 Partly Cloudy SCT041 88.5 73 60% 96 30.11 0.0
17 11:55 SW 8 10.00 Fair CLR 88.9 73 60% 97 30.12 0.0
17 11:35 S 8 10.00 Fair CLR 88 73 61% 96 30.12 0.0
17 11:15 S 9 10.00 Fair CLR 87.8 73 62% 95 30.12 0.0
17 10:55 SW 7 G 17 10.00 Fair CLR 87.8 73.4 62% 96 30.13 0.0
17 10:35 SW 7 10.00 Fair CLR 86.7 72.3 62% 93 30.13 0.0
17 10:15 SW 8 G 16 10.00 Fair CLR 86 72.1 63% 92 30.12 0.0
17 09:55 S 5 10.00 Fair CLR 85.1 72.5 66% 91 30.12 0.0
17 09:35 S 10 10.00 Fair CLR 86.4 73 65% 94 30.12 0.0
17 09:15 SW 6 10.00 Fair CLR 84.7 74.3 71% 92 30.12 0.0
17 08:55 S 7 10.00 Fair CLR 83.8 73.4 71% 90 30.12 0.0
17 08:35 S 6 10.00 Fair CLR 83.1 73.2 72% 89 30.11 0.0
17 08:15 SW 5 10.00 Fair CLR 81 72.3 75% 85 30.11 0.0
17 07:55 SW 6 10.00 Fair CLR 80.1 72 76% 84 30.11 0.0
17 07:35 SW 3 10.00 Fair CLR 77.4 70.9 81% 79 30.11 0.0
17 07:15 SW 5 10.00 Fair CLR 77.4 70.7 80% 79 30.11 0.0
17 06:55 S 6 10.00 Fair CLR 77.2 70.2 77.2 73.8 79% 79 30.11 0.0
17 06:35 S 6 10.00 Fair CLR 77 70.2 80% 79 30.1 0.0
17 06:15 S 5 10.00 Fair CLR 76.5 69.8 80% 78 30.09 0.0
17 05:55 S 5 10.00 Fair CLR 76.1 69.8 81% 77 30.09 0.0
17 05:35 S 5 10.00 Fair CLR 76.3 70 81% 77 30.08 0.0
17 05:15 S 3 10.00 Fair CLR 76.5 70 80% 78 30.08 0.0
17 04:55 S 5 10.00 Fair CLR 76.5 70 80% 78 30.08 0.0
17 04:35 S 3 10.00 Fair CLR 76.1 70.2 82% 77 30.08 0.0
17 04:15 S 3 10.00 Fair CLR 76.1 70.2 82% 77 30.07 0.0
17 03:55 S 3 10.00 Fair CLR 76.5 70.2 81% 78 30.07 0.0
17 03:35 S 3 10.00 Fair CLR 76.5 70.2 81% 78 30.06 0.0
17 03:15 S 5 10.00 Fair CLR 76.3 70.2 81% 77 30.05 0.0
17 02:55 S 6 10.00 Fair CLR 76.5 70 80% 78 30.05 0.0
17 02:35 S 5 10.00 Fair CLR 76.1 69.4 80% 77 30.05 0.0
17 02:15 S 3 10.00 Fair CLR 75.9 68.9 79% 77 30.05 0.0
17 01:55 S 3 10.00 Partly Cloudy SCT110 75.6 68 77% 77 30.05 0.0
17 01:35 S 3 10.00 Partly Cloudy SCT110 75.2 67.5 77% 76 30.05 0.0
17 01:15 Calm 10.00 Overcast OVC110 73.9 67.8 81% 30.06 0.0
17 00:55 Calm 10.00 Mostly Cloudy BKN120 74.1 68 84.2 72 81% 30.06 0.0
17 00:35 Calm 10.00 Partly Cloudy SCT120 73.8 67.6 81% 30.06 0.0
17 00:15 Calm 10.00 Partly Cloudy SCT100 72 69.3 91% 30.05 0.0
16 23:55 Calm 10.00 Mostly Cloudy BKN100 72.9 69.1 88% 30.06 0.0
16 23:35 Calm 10.00 Fair CLR 72.5 68.9 89% 30.06 0.0
16 23:15 Calm 10.00 Fair CLR 73.2 68 84% 30.05 0.0
16 22:55 Calm 10.00 Partly Cloudy SCT090 73.4 68.2 84% 30.05 0.0
16 22:35 Calm 10.00 Fair CLR 74.3 67.5 79% 30.04 0.0
16 22:15 SE 5 10.00 Fair CLR 73.9 68 82% 30.04 0.0
16 21:55 E 3 10.00 Fair CLR 75.2 67.6 77% 76 30.03 0.0
16 21:35 SE 5 10.00 Fair CLR 75.6 68 77% 77 30.04 0.0
16 21:15 S 3 10.00 Fair CLR 76.5 68 75% 78 30.05 0.0
16 20:35 S 7 10.00 Fair CLR 79 69.3 72% 82 30.04 0.0
16 20:15 S 9 10.00 Fair CLR 80.6 69.6 69% 84 30.02 0.0
16 19:55 S 6 10.00 Partly Cloudy SCT080 81.5 72.1 73% 86 30.03 0.0
16 19:35 W 5 10.00 Partly Cloudy SCT080 82.4 72.3 72% 88 30.04 0.0
16 19:15 SW 7 10.00 Fair CLR 83.3 72.3 70% 89 30.03 0.0
16 18:55 SW 5 10.00 Thunderstorm in Vicinity CLR 84.2 71.6 93.4 84.2 66% 90 30.01 0.0
16 18:35 S 3 10.00 Thunderstorm in Vicinity CLR 85.1 71.6 64% 91 30 0.0
16 18:15 Calm 10.00 Fair CLR 85.8 72.5 65% 92 29.98 0.0
16 17:55 SE 5 10.00 Fair CLR 86.7 72.7 63% 94 29.97 0.0
16 17:35 SE 5 10.00 Fair CLR 87.8 73.6 63% 96 29.98 0.0
16 17:15 S 9 10.00 Fair CLR 91.2 71.4 52% 98 29.98 0.0
16 16:55 S 7 10.00 Fair CLR 93 71.2 49% 100 29.98 0.0
16 16:35 SW 7 10.00 Fair CLR 93.2 71.6 50% 101 29.98 0.0
16 16:15 S 5 10.00 Fair CLR 93.2 71.1 49% 100 29.99 0.0
16 15:55 Calm 10.00 Fair CLR 92.7 71.4 50% 100 29.98 0.0
16 15:35 Calm 10.00 Fair CLR 92.3 72 52% 100 29.99 0.0
16 15:15 Calm 10.00 Fair CLR 92.5 71.4 50% 100 30 0.0
16 14:55 SW 3 10.00 Fair CLR 92.3 70.5 49% 99 30 0.0
16 14:35 W 6 10.00 Fair CLR 92.1 71.6 51% 99 30.01 0.0
16 14:15 SW 6 G 16 10.00 Fair CLR 92.1 72.3 52% 100 30.01 0.0
16 13:55 SW 9 10.00 Fair CLR 91.8 72 52% 99 30.02 0.0
16 13:35 S 8 10.00 Fair CLR 91.6 72.1 53% 99 30.03 0.0
16 13:15 SW 7 10.00 Fair CLR 91.4 72.7 54% 100 30.04 0.0
16 12:55 SW 12 10.00 Fair CLR 91 72.7 91 68.7 55% 99 30.04 0.0
16 12:35 SW 12 10.00 Fair CLR 90.5 72.9 56% 99 30.05 0.0
16 12:15 W 8 10.00 Fair CLR 90 72.3 56% 98 30.05 0.0
16 11:55 S 5 10.00 Fair CLR 89.4 73.6 60% 98 30.05 0.0
16 11:35 SW 7 10.00 Fair CLR 88.7 72.7 59% 96 30.05 0.0
16 11:10 S 6 10.00 Fair CLR 87.8 71.8 59% 94 30.05 0.0
16 10:55 SW 7 10.00 Fair CLR 87.3 71.4 59% 93 30.05 0.0
16 10:35 SW 3 10.00 Fair CLR 86.7 71.6 61% 93 30.05 0.0
16 10:15 SW 6 10.00 Fair CLR 85.5 71.1 62% 91 30.05 0.0
16 09:55 SW 6 10.00 Fair CLR 83.7 70 64% 88 30.06 0.0
16 09:35 S 3 10.00 Fair CLR 82 68.9 65% 85 30.06 0.0
16 09:15 SE 5 10.00 Fair CLR 81.1 67.5 63% 84 30.06 0.0
16 08:55 Calm 10.00 Fair CLR 80.8 67.8 65% 83 30.06 0.0
16 08:35 S 3 10.00 Fair CLR 79 66.4 65% 81 30.06 0.0
16 08:15 Calm 10.00 Fair CLR 75.6 64.9 70% 77 30.05 0.0
16 07:55 Calm 10.00 Fair CLR 73.6 63.5 71% 30.05 0.0
16 07:35 E 3 10.00 Fair CLR 72 62.2 72% 30.05 0.0
16 07:15 E 3 10.00 Fair CLR 70.2 61.3 74% 30.05 0.0
16 06:55 E 5 10.00 Fair CLR 68.5 61.2 68.5 64.2 77% 30.04 0.0
16 06:35 E 3 10.00 Fair CLR 66.6 61 82% 30.05 0.0
16 06:15 Calm 10.00 Fair CLR 64.9 60.1 84% 30.04 0.0
16 05:55 Calm 10.00 Fair CLR 65.3 59.9 83% 30.04 0.0
16 05:35 Calm 10.00 Fair CLR 64.4 60.3 87% 30.04 0.0
16 05:15 Calm 10.00 Fair CLR 64.6 59.9 85% 30.03 0.0
16 04:55 Calm 10.00 Fair CLR 65.3 59.5 82% 30.02 0.0
16 04:35 NE 3 10.00 Fair CLR 65.8 59.5 80% 30.02 0.0
16 04:15 Calm 10.00 Fair CLR 65.5 59.9 82% 30.01 0.0
16 03:55 NE 3 10.00 Fair CLR 66.2 59.9 80% 30.01 0.0
16 03:35 NE 3 10.00 Fair CLR 65.8 60.1 82% 30.01 0.0
16 03:15 Calm 10.00 Fair CLR 65.8 60.3 82% 30.01 0.0
16 02:55 Calm 10.00 Fair CLR 65.5 60.8 85% 30.01 0.0
16 02:35 Calm 10.00 Fair CLR 66.6 60.4 81% 30.01 0.0
16 02:15 Calm 10.00 Fair CLR 66.7 60.3 80% 30.02 0.0
16 01:55 Calm 10.00 Fair CLR 66.7 60.6 81% 30.02 0.0
16 01:35 Calm 10.00 Fair CLR 67.1 60.1 78% 30.02 0.0
16 01:15 Calm 10.00 Fair CLR 67.3 60.4 79% 30.02 0.0
16 00:55 Calm 10.00 Fair CLR 68 60.3 83.8 68 76% 30.02 0.0
16 00:35 NE 3 10.00 Fair CLR 70.5 60.1 70% 30.02 0.0
16 00:15 NE 5 10.00 Fair CLR 70.9 60.1 69% 30.02 0.0
15 23:55 E 5 10.00 Fair CLR 71.4 59.9 67% 30.02 0.0
15 23:35 E 5 10.00 Fair CLR 71.8 59.9 66% 30.02 0.0
15 23:15 E 6 10.00 Fair CLR 72.3 60.3 66% 30.03 0.0
15 22:55 E 5 10.00 Fair CLR 72.5 60.8 67% 30.03 0.0
15 22:35 E 6 10.00 Fair CLR 72.7 60.8 66% 30.03 0.0
15 22:15 E 6 10.00 Fair CLR 73.6 61.2 65% 30.03 0.0
15 21:55 NE 5 10.00 Fair CLR 73.9 61.9 66% 30.03 0.0
15 21:35 E 6 10.00 Fair CLR 75.2 61.9 63% 77 30.03 0.0
15 21:15 NE 8 10.00 Fair CLR 76.3 63.3 64% 78 30.02 0.0
15 20:55 NE 7 10.00 Fair CLR 76.3 64.9 68% 78 30.02 0.0
15 20:35 NE 5 10.00 Fair CLR 77.2 65.3 67% 79 30.02 0.0
15 20:15 NE 5 10.00 Fair CLR 77.9 65.3 65% 80 30.01 0.0
15 19:55 NE 5 10.00 Fair CLR 78.8 65.7 64% 81 30.01 0.0
15 19:35 NE 7 10.00 Fair CLR 81.1 65.7 59% 83 30.01 0.0
15 19:10 NE 6 10.00 Fair CLR 82.9 65.3 55% 85 30.02 0.0
15 18:55 NE 3 10.00 Fair CLR 84.2 64.9 88.7 84.2 52% 86 30.01 0.0
15 18:35 NE 6 10.00 Fair CLR 84.7 66 54% 87 30.01 0.0
15 18:15 NE 7 10.00 Fair CLR 85.1 65.1 51% 87 30.01 0.0
15 17:55 E 5 10.00 Fair CLR 85.3 64.8 50% 87 30.01 0.0
15 17:35 E 7 10.00 Fair CLR 84.7 64.2 50% 86 30.01 0.0
15 17:15 E 9 10.00 Fair CLR 87.1 65.7 49% 89 30.01 0.0
15 16:55 E 7 10.00 Fair CLR 86.7 64.6 48% 88 30.01 0.0
15 16:35 NE 9 10.00 Partly Cloudy SCT060 87.1 65.3 48% 89 30.01 0.0
15 16:15 E 7 10.00 Partly Cloudy SCT060 84.9 65.7 53% 87 30.02 0.0
15 15:55 E 5 10.00 Fair CLR 88.2 65.7 47% 90 30.02 0.0
15 15:35 NE 7 10.00 Partly Cloudy SCT070 86.2 64.4 48% 88 30.02 0.0
15 15:15 E 5 10.00 Partly Cloudy SCT060 87.6 65.3 48% 90 30.02 0.0
15 14:55 E 9 10.00 Mostly Cloudy BKN060 BKN070 85.6 65.3 51% 88 30.02 0.0
15 14:35 SE 6 10.00 Mostly Cloudy SCT060 BKN070 85.8 66 52% 88 30.03 0.0
15 14:15 E 7 10.00 Partly Cloudy SCT060 87.3 64.9 48% 89 30.03 0.0
15 13:55 NE 7 10.00 Partly Cloudy SCT060 88 65.7 48% 90 30.03 0.0
15 13:35 NE 3 10.00 Partly Cloudy SCT060 87.6 63.1 44% 89 30.03 0.0
15 13:15 E 10 10.00 Mostly Cloudy BKN060 87.3 64.8 47% 89 30.04 0.0
15 12:55 SE 7 10.00 Partly Cloudy SCT060 87.8 65.8 88 72.1 48% 90 30.04 0.0
15 12:35 SE 6 10.00 Partly Cloudy SCT050 SCT065 87.4 63.7 45% 89 30.05 0.0
15 12:15 Calm 10.00 Partly Cloudy SCT050 SCT075 86.9 65.3 49% 89 30.05 0.0
15 11:55 E 9 10.00 Mostly Cloudy SCT047 SCT060 BKN075 86 66.2 52% 88 30.06 0.0
15 11:35 E 6 10.00 Partly Cloudy SCT049 SCT055 SCT070 86.4 67.5 53% 89 30.06 0.0
15 11:15 E 8 10.00 Partly Cloudy SCT070 85.3 70 60% 90 30.06 0.0
15 10:55 SE 6 10.00 Fair CLR 84.6 71.1 64% 90 30.06 0.0
15 10:35 E 7 10.00 Fair CLR 83.5 71.6 68% 89 30.06 0.0
15 10:15 E 7 10.00 Fair CLR 82.8 71.4 69% 88 30.06 0.0
15 09:55 Calm 10.00 Fair CLR 82 71.2 70% 86 30.06 0.0
15 09:35 E 6 10.00 Fair CLR 81.1 71.8 73% 85 30.06 0.0
Date Time (cdt) Wind (mph) Vis. (mi.) Weather Sky Cond. Air Dwpt Max. Min. Relative Humidity Wind Chill (°F) Heat Index (°F) altimeter (in) sea level (mb) 1 hr 3 hr 6 hr
6 hour
Temperature (ºF) Pressure Precipitation (in)